Tracking 33188 objects as of 11-Feb-2026
HD Live streaming from Space Station
objects crossing your sky now

STARLINK-34809

Track STARLINK-34809 now!
10-day predictions
STARLINK-34809 is classified as:


NORAD ID: 65069
Int'l Code: 2025-165P
Perigee: 555.4 km
Apogee: 557.9 km
Inclination: 97.6 °
Period: 95.6 minutes
Semi major axis: 6927 km
RCS: Unknown
Launch date: July 31, 2025
Source: United States (US)
Launch site: AIR FORCE WESTERN TEST RANGE (AFWTR)
Your satellite tracking list
Your tracking list is empty




NASA's NSSDC Master Catalog

Two Line Element Set (TLE):
1 65069U 25165P   26041.80488230  .00002044  00000-0  14585-3 0  9997
2 65069  97.6029 120.7074 0001774  92.2143 267.9286 15.05650741 30740
Source of the keplerian elements: AFSPC